Location: Fort Wayne
(41.1310°N, 85.1290°W)
Time: 03:04:18
(UTC-04:00)

Tiros 1 despin weight - Visible Passes

Search period start: 21 October 2014 00:00
Search period end: 31 October 2014 00:00
Orbit: 601 x 652 km, 48.2° (Epoch: 18 October)

Date Brightness Start Highest point End Pass type
(mag) Time Alt. Az. Time Alt. Az. Time Alt. Az.
27 Oct ? 06:53:01 10° S 06:56:21 19° SE 06:59:40 10° E visible
28 Oct ? 07:10:58 10° SSW 07:15:17 37° SE 07:19:35 10° ENE visible
29 Oct ? 05:50:44 10° SSE 05:53:14 14° SE 05:55:43 10° E visible
29 Oct ? 07:29:42 10° SW 07:34:22 70° SSE 07:39:01 10° ENE visible
30 Oct ? 06:09:08 15° S 06:12:06 28° SE 06:16:07 10° E visible
